Location: Luxembourg
(49.6117°N, 6.1300°E)
Time: 04:42:05
(UTC+01:00)

ISS - Pass Details

Date: 03 December 2021
Orbit: 413 x 422 km, 51.6° (Epoch: 22 January)

Event Time Altitude Azimuth Distance (km) Brightness Sun altitude
Rises 17:00:03 0° 279° (W) 2,386 1.0 -4.0°
Reaches altitude 10° 17:02:10 10° 283° (WNW) 1,518 -0.1 -4.3°
Maximum altitude 17:05:33 60° 4° (N) 491 -3.6 -4.7°
Drops below altitude 10° 17:08:55 10° 86° (E) 1,512 -1.5 -5.2°
Enters shadow 17:10:02 - 89° (E) 1,966 -0.9 -5.4°
